Weather in Rodina

Russia / Pskov Oblast     57°49′54″N   28°15′16″E
temp.,
°C
wind,
m/s
gust,
m/s
humid.,
%
clouds,
%
prec.,
mm/h
press.,
hPa
HPBL,
m
14 may, fri
fri1400:00+9ese399637 0.0 1010289
03:00+8se389821 0.0 1010213
06:00+7ese279613 0.0 1009215
09:00+11ese498191 0.0 1009538
12:00+13se5977100 0.0 1009909
15:00+16se4974100 0.1 10081143
18:00+17se5107797 0.9 10071162
21:00+13se3119114 1.4 1007407
15 may, sat
sat1500:00+12ese399333 0.0 1007232
03:00+9e2596100 0.1 100699
06:00+10ese2696100 0.1 1005169
09:00+13se1395100 1.6 1005232
12:00+15nne1187100 0.4 1005495
15:00+13wnw2496100 1.9 1004168
18:00+14wnw349195 1.0 1004260
21:00+13w259540 1.3 1005124
16 may, sun
sun1600:00+11wnw389592 0.0 1005186
03:00+8w36935 0.0 1007120
06:00+8w25977 0.0 1008135
09:00+14wsw23795 0.0 1009454
12:00+18sw24545 0.0 10091314
15:00+19ssw345788 0.1 10091137
18:00+19s34655 0.8 10091175
21:00+14se239068 1.3 100947
17 may, mon
mon1700:00+11sse24961 0.0 100975
03:00+11se2797100 0.0 1009132
06:00+11se31095100 0.0 1008249
09:00+17se5127830 0.0 1008620
12:00+20sse71164100 0.6 10071526
15:00+18s61083100 3.4 10071005
18:00+14sse2596100 3.7 1007255
21:00+13nnw1198100 3.8 100631
18 may, tue
tue1800:00+11nw2599100 0.1 1005118
03:00+10nw239993 0.1 100561
06:00+10nw239967 0.0 1005102
09:00+13nnw2291100 0.0 1005326
12:00+16nnw1175100 0.1 1005740
15:00+16nw117299 0.1 1005565
18:00+18se2360100 0.1 1003869
21:00+14wsw258683 0.3 100489